Weather in Sol-Iletsk

Russia / Orenburg Oblast     51°09′42″N   54°58′49″E
temp.,
°C
wind,
m/s
gust,
m/s
humid.,
%
clouds,
%
prec.,
mm/h
press.,
hPa
HPBL,
m
4 march, thu
thu423:00−2nw61096100 1.1 1005389
02:00−6wnw489694 0.1 1005197
05:00−9wnw479489 0.1 1008137
08:00−10w499581 0.1 1009208
11:00−9w599581 0.1 1011289
14:00−7wsw7119297 0.0 1012498
17:00−6sw8149187 0.0 1012531
20:00−4sw101794100 0.3 1011834
5 march, fri
fri523:00−2sw111896100 1.2 1010892
02:00−2sw111983100 0.4 1009728
05:00−4sw10208490 0.4 1010560
08:00−5sw10188761 0.0 1010528
11:00−3sw10188958 0.0 1010677
14:00−1sw121897100 0.6 10091008
17:000sw111798100 2.8 1008949
20:000wsw91498100 1.2 1009737
6 march, sat
sat623:00+1wsw91498100 1.6 1011784
02:000wsw71398100 0.6 1011626
05:00−1w5996100 1.4 1013481
08:00−6nne2397100 0.1 101425
11:00−5n1294100 0.1 101595
14:00−3ne1186100 0.0 1015222
17:00−3e2393100 0.1 1013218
20:00−3ene4797100 1.5 1011254
7 march, sun
sun723:00−4ene6996100 3.9 1009316
02:00−5nne71095100 3.3 1006308
05:00−7nne71194100 5.0 1006357
08:00−8n71294100 2.3 1007456
11:00−9nnw71092100 2.8 1010423
14:00−11nnw7118378 0.0 1013446
17:00−12nw6108538 0.0 1015416
20:00−17nw44910 0.0 101847
8 march, mon
mon823:00−18wsw22910 0.0 101920
02:00−19ssw44930 0.0 101757
05:00−15ssw599118 0.0 1016230
08:00−10ssw81686100 0.0 1014477
11:00−6sw101783100 0.0 1013865
14:00−4sw111684100 0.0 10131102
17:00−4sw101593100 0.2 1013992
20:00−4ssw81781100 0.3 1012659